TimeCET,TemperatureF,Dew PointF,Humidity,Sea Level PressureIn,VisibilityMPH,Wind Direction,Wind SpeedMPH,Gust SpeedMPH,PrecipitationIn,Events,Conditions,WindDirDegrees,DateUTC
12:20 AM,23.0,19.4,86,29.74,6.2,ESE,3.5,-,N/A,,Mostly Cloudy,120,2012-12-06 23:20:00
12:50 AM,23.0,19.4,86,29.74,6.2,East,4.6,-,N/A,,Mostly Cloudy,90,2012-12-06 23:50:00
1:00 AM,24,20,79,29.75,12,ENE,3.5,,,,Mostly Cloudy,60,2012-12-07 00:00:00
1:20 AM,23.0,19.4,86,29.74,6.2,East,4.6,-,N/A,,Mostly Cloudy,90,2012-12-07 00:20:00
1:50 AM,24.8,21.2,86,29.74,6.2,ENE,3.5,-,N/A,,Mostly Cloudy,60,2012-12-07 00:50:00
2:20 AM,24.8,23.0,93,29.74,6.2,ENE,5.8,-,N/A,,Mostly Cloudy,60,2012-12-07 01:20:00
2:50 AM,24.8,21.2,86,29.74,6.2,ENE,3.5,-,N/A,,Mostly Cloudy,70,2012-12-07 01:50:00
3:20 AM,24.8,21.2,86,29.74,6.2,East,4.6,-,N/A,,Mostly Cloudy,80,2012-12-07 02:20:00
3:50 AM,24.8,21.2,86,29.74,6.2,East,4.6,-,N/A,,Mostly Cloudy,80,2012-12-07 02:50:00
4:00 AM,26,22,80,29.75,12,East,8.1,,,,Mostly Cloudy,90,2012-12-07 03:00:00
4:20 AM,26.6,23.0,86,29.74,6.2,East,6.9,-,N/A,,Mostly Cloudy,80,2012-12-07 03:20:00
4:50 AM,26.6,23.0,86,29.74,6.2,East,8.1,-,N/A,,Mostly Cloudy,100,2012-12-07 03:50:00
5:20 AM,26.6,23.0,86,29.74,6.2,East,6.9,-,N/A,,Mostly Cloudy,90,2012-12-07 04:20:00
5:50 AM,28.4,23.0,80,29.74,5.0,East,5.8,-,N/A,Snow,Light Snow Showers,90,2012-12-07 04:50:00
6:20 AM,28.4,24.8,86,29.74,5.0,ENE,5.8,-,N/A,Snow,Light Snow Showers,70,2012-12-07 05:20:00
6:50 AM,28.4,23.0,80,29.74,5.0,ENE,4.6,-,N/A,Snow,Light Snow Showers,70,2012-12-07 05:50:00
7:00 AM,27,23,80,29.76,5,ENE,4.6,,,Snow,Light Snow Showers,70,2012-12-07 06:00:00
7:20 AM,28.4,24.8,86,29.74,6.2,ENE,5.8,-,N/A,Snow,Light Snow Showers,60,2012-12-07 06:20:00
7:50 AM,28.4,24.8,86,29.74,6.2,ENE,6.9,-,N/A,,Mostly Cloudy,60,2012-12-07 06:50:00
8:20 AM,28.4,24.8,86,29.74,6.2,ENE,6.9,-,N/A,,Mostly Cloudy,70,2012-12-07 07:20:00
8:50 AM,30.2,24.8,80,29.77,6.2,ENE,5.8,-,N/A,,Mostly Cloudy,70,2012-12-07 07:50:00
9:20 AM,32.0,28.4,87,29.77,6.2,East,11.5,-,N/A,,Mostly Cloudy,80,2012-12-07 08:20:00
9:50 AM,30.2,28.4,93,29.77,6.2,East,13.8,-,N/A,,Mostly Cloudy,80,2012-12-07 08:50:00
10:00 AM,31,28,84,29.79,12,East,13.8,,,,Partly Cloudy,80,2012-12-07 09:00:00
10:20 AM,30.2,28.4,93,29.80,6.2,East,12.7,-,N/A,,Mostly Cloudy,80,2012-12-07 09:20:00
10:50 AM,30.2,28.4,93,29.80,6.2,East,12.7,-,N/A,,Mostly Cloudy,80,2012-12-07 09:50:00
11:20 AM,30.2,26.6,86,29.80,6.2,East,11.5,-,N/A,,Mostly Cloudy,80,2012-12-07 10:20:00
11:50 AM,30.2,26.6,86,29.80,6.2,ENE,11.5,-,N/A,,Mostly Cloudy,70,2012-12-07 10:50:00
12:20 PM,30.2,26.6,86,29.83,6.2,East,8.1,-,N/A,,Mostly Cloudy,80,2012-12-07 11:20:00
12:50 PM,30.2,26.6,86,29.83,6.2,East,8.1,-,N/A,,Mostly Cloudy,80,2012-12-07 11:50:00
1:00 PM,30,27,83,29.84,16,ENE,8.1,,,,Partly Cloudy,70,2012-12-07 12:00:00
1:20 PM,30.2,26.6,86,29.83,6.2,ENE,8.1,-,N/A,,Mostly Cloudy,60,2012-12-07 12:20:00
1:50 PM,30.2,26.6,86,29.83,6.2,ENE,6.9,-,N/A,,Mostly Cloudy,60,2012-12-07 12:50:00
2:20 PM,30.2,26.6,86,29.83,6.2,ENE,8.1,-,N/A,,Mostly Cloudy,60,2012-12-07 13:20:00
2:50 PM,28.4,24.8,86,29.83,6.2,NE,5.8,-,N/A,,Mostly Cloudy,50,2012-12-07 13:50:00
3:20 PM,28.4,24.8,86,29.86,6.2,NE,6.9,-,N/A,,Mostly Cloudy,50,2012-12-07 14:20:00
3:50 PM,28.4,24.8,86,29.86,6.2,NE,5.8,-,N/A,,Mostly Cloudy,40,2012-12-07 14:50:00
4:00 PM,28,24,77,29.88,16,NE,4.6,,,,Overcast,50,2012-12-07 15:00:00
4:20 PM,26.6,23.0,86,29.86,6.2,NE,5.8,-,N/A,,Mostly Cloudy,50,2012-12-07 15:20:00
4:50 PM,26.6,23.0,86,29.89,6.2,NNE,3.5,-,N/A,,Mostly Cloudy,30,2012-12-07 15:50:00
5:20 PM,24.8,21.2,86,29.89,6.2,NNE,3.5,-,N/A,,Mostly Cloudy,30,2012-12-07 16:20:00
5:50 PM,24.8,21.2,86,29.89,6.2,NNE,3.5,-,N/A,,Scattered Clouds,20,2012-12-07 16:50:00
6:20 PM,23.0,21.2,93,29.92,6.2,NE,3.5,-,N/A,,Scattered Clouds,40,2012-12-07 17:20:00
6:50 PM,23.0,21.2,93,29.92,6.2,NE,3.5,-,N/A,,Mostly Cloudy,40,2012-12-07 17:50:00
7:00 PM,23,20,85,29.94,12,NE,3.5,,,,Scattered Clouds,40,2012-12-07 18:00:00
7:20 PM,23.0,19.4,86,29.92,6.2,NE,2.3,-,N/A,,Scattered Clouds,40,2012-12-07 18:20:00
7:50 PM,21.2,19.4,93,29.95,6.2,North,1.2,-,N/A,,Scattered Clouds,360,2012-12-07 18:50:00
8:20 PM,17.6,15.8,93,29.95,6.2,Calm,Calm,-,N/A,Fog,Shallow Fog,0,2012-12-07 19:20:00
8:50 PM,19.4,17.6,93,29.95,0.9,SSW,1.2,-,N/A,Fog,Shallow Fog,210,2012-12-07 19:50:00
9:20 PM,19.4,17.6,93,29.98,2.5,West,2.3,-,N/A,Fog,Fog,260,2012-12-07 20:20:00
9:50 PM,19.4,19.4,100,29.98,6.2,Calm,Calm,-,N/A,Fog,Shallow Fog,0,2012-12-07 20:50:00
10:00 PM,21,19,91,29.99,6,Calm,Calm,,,Fog,Patches of Fog,,2012-12-07 21:00:00
10:20 PM,21.2,19.4,93,29.98,6.2,South,2.3,-,N/A,Fog,Shallow Fog,170,2012-12-07 21:20:00
10:50 PM,23.0,21.2,93,29.98,6.2,SW,2.3,-,N/A,,Mostly Cloudy,230,2012-12-07 21:50:00
11:20 PM,23.0,21.2,93,29.98,6.2,WNW,3.5,-,N/A,,Mostly Cloudy,290,2012-12-07 22:20:00
11:50 PM,24.8,23.0,93,29.98,6.2,NW,2.3,-,N/A,,Mostly Cloudy,310,2012-12-07 22:50:00